Regional Weather Roundup
Issued by NWS

Home | Current Version | Previous Version | Graphics & Text | Print | Product List | Glossary On
Versions: 1 2 3 4 5 6 7 8 9 10 11 12 13 14 15 16 17 18 19 20 21 22 23 24 25 26 27 28 29 30 31 32 33 34 35 36 37 38 39 40 41 42 43 44 45 46 47 48 49
000
ASUS45 KBOI 300310
RWRID

IDAHO REGIONAL WEATHER ROUNDUP
NATIONAL WEATHER SERVICE BOISE ID
900 PM MDT FRI MAY 29 2015

NOTE: "FAIR" INDICATES FEW OR NO CLOUDS BELOW 12000 FEET
WITH NO SIGNIFICANT WEATHER AND/OR OBSTRUCTIONS TO VISIBILITY

IDZ012-014-300400-
SOUTHWEST IDAHO


CITY           SKY/WX    TMP DP  RH WIND       PRES   REMARKS
BOISE          CLEAR     81  35  19 SE6       29.94F
CALDWELL       CLEAR     77  43  29 E6        29.92F
MOUNTAIN HOME  CLEAR     78  40  25 E8        29.95S
$$

IDZ016-017-300400-
SOUTHCENTRAL IDAHO


CITY           SKY/WX    TMP DP  RH WIND       PRES   REMARKS
BURLEY         MOCLDY    68  48  48 E6        30.04F
JEROME         MOCLDY    68  47  46 E10       30.05S
TWIN FALLS     PTCLDY    67  50  54 E6        30.03S
$$

IDZ019>023-300400-
SOUTHEAST IDAHO


CITY           SKY/WX    TMP DP  RH WIND       PRES   REMARKS
IDAHO FALLS    PTCLDY    63  45  51 SW7       30.12F
POCATELLO      CLEAR     66  48  52 E5        30.10F
REXBURG        PTCLDY    64  44  48 CALM      30.13S
$$

IDZ006-010-011-018-031-032-300400-
CENTRAL IDAHO MOUNTAINS


CITY           SKY/WX    TMP DP  RH WIND       PRES   REMARKS
MCCALL         PTCLDY    66  39  37 W5        30.07S
HAILEY         PTCLDY    59  46  63 CALM      30.14F
STANLEY          N/A     60  36  40 S5        30.17R
SALMON         CLOUDY    64  48  55 S10       30.01S
CHALLIS        MOCLDY    65  41  41 VRB3      30.09R
$$

IDZ002-004-006-007-026-300400-
NORTHERN IDAHO


CITY           SKY/WX    TMP DP  RH WIND       PRES   REMARKS
LEWISTON       CLOUDY    80  49  33 S7        29.86S
LOWELL           N/A     67  56  67 N3        29.88R
COEUR D`ALENE  PTCLDY    70  52  52 N9        29.90S
MULLAN PASS    PTCLDY    58  44  60 CALM      30.10F
$$



USA.gov is the U.S. government's official web portal to all federal, state and local government web resources and services.